Chariton, IA

5:14 PM CDT on September 29, 2016 (GMT -0500)
Chariton Municipal

Weather History for KCNC - November, 2012

Change the Weather History Date:

Monday, November 26, 2012

  Actual Average Record
Temperature  
Mean Temperature 26 °F -  
Max Temperature 35 °F 43 °F 64 °F (1984)
Min Temperature 17 °F 26 °F -3 °F (1991)
Degree Days  
Heating Degree Days 39    
Moisture  
Dew Point 17 °F    
Average Humidity 60    
Maximum Humidity 75    
Minimum Humidity 51    
Precipitation  
Precipitation 0.00 in - - ()
Sea Level Pressure  
Sea Level Pressure 30.33 in    
Wind  
Wind Speed 10 mph (North)    
Max Wind Speed 16 mph    
Max Gust Speed 22 mph    
Visibility 10 miles    
Events      
Averages and records for this station are not official NWS values.
T = Trace of Precipitation, MM = Missing Value Source: NWS Daily Summary

Daily Weather History Graph

Daily Weather History Graph

Search for Another Location

Airport or City:

Trip Planner

Search our weather history database for the weather conditions in past years. The results will help you decide how hot, cold, wet, or windy it might be!

Date:

Astronomy

Nov. 26, 2012 Rise Set
Actual Time 7:14 AM CST 4:47 PM CST
Civil Twilight 6:43 AM CST 5:17 PM CST
Nautical Twilight 6:09 AM CST 5:51 PM CST
Astronomical Twilight 5:37 AM CST 6:24 PM CST
Moon 3:40 PM CST (11/26) 5:24 AM CST (11/26)
Length of Visible Light 10h 33m
Length of Day
9h 33m
Waxing Gibbous, 97% of the Moon is Illuminated
Nov 26
Waxing Gibbous
Nov 28
Full
Dec 6
Last Quarter
Dec 13
New
Dec 19
First Quarter

Hourly Weather History & Observations

Time (CST) Temp. Windchill Dew Point Humidity Pressure Visibility Wind Dir Wind Speed Gust Speed Precip Events Conditions
12:15 AM 33.8 °F 25.8 °F 26.6 °F 75% 30.15 in 10.0 mi North 10.4 mph - N/A   Scattered Clouds
12:35 AM 35.6 °F 27.5 °F 26.6 °F 70% 30.15 in 10.0 mi North 11.5 mph - N/A   Mostly Cloudy
12:55 AM 35.6 °F 27.1 °F 26.6 °F 70% 30.15 in 10.0 mi North 12.7 mph - N/A   Overcast
1:15 AM 35.6 °F 26.6 °F 24.8 °F 65% 30.15 in 10.0 mi NNE 13.8 mph 18.4 mph N/A   Overcast
1:35 AM 35.6 °F 28.0 °F 24.8 °F 65% 30.16 in 10.0 mi NNE 10.4 mph - N/A   Overcast
1:55 AM 33.8 °F 24.3 °F 24.8 °F 70% 30.17 in 10.0 mi NNE 13.8 mph - N/A   Overcast
2:15 AM 33.8 °F 25.3 °F 24.8 °F 70% 30.18 in 10.0 mi NNE 11.5 mph 18.4 mph N/A   Overcast
2:35 AM 33.8 °F 24.8 °F 23.0 °F 65% 30.18 in 10.0 mi NNE 12.7 mph - N/A   Overcast
2:55 AM 33.8 °F 24.8 °F 23.0 °F 65% 30.19 in 10.0 mi NNE 12.7 mph - N/A   Scattered Clouds
3:15 AM 33.8 °F 24.8 °F 23.0 °F 65% 30.19 in 10.0 mi NNE 12.7 mph - N/A   Mostly Cloudy
3:35 AM 33.8 °F 25.8 °F 23.0 °F 65% 30.20 in 10.0 mi NNE 10.4 mph - N/A   Overcast
3:55 AM 33.8 °F 26.4 °F 23.0 °F 65% 30.20 in 10.0 mi NNE 9.2 mph - N/A   Mostly Cloudy
4:15 AM 33.8 °F 25.8 °F 23.0 °F 65% 30.19 in 10.0 mi NNE 10.4 mph - N/A   Scattered Clouds
4:55 AM 33.8 °F 26.4 °F 23.0 °F 65% 30.21 in 10.0 mi NNE 9.2 mph - N/A   Mostly Cloudy
5:15 AM 33.8 °F 27.0 °F 21.2 °F 60% 30.22 in 10.0 mi NE 8.1 mph - N/A   Overcast
5:35 AM 33.8 °F 26.4 °F 21.2 °F 60% 30.22 in 10.0 mi NE 9.2 mph - N/A   Overcast
5:55 AM 33.8 °F 27.0 °F 21.2 °F 60% 30.23 in 10.0 mi NNE 8.1 mph - N/A   Scattered Clouds
6:15 AM 33.8 °F 26.4 °F 23.0 °F 65% 30.23 in 10.0 mi North 9.2 mph - N/A   Scattered Clouds
6:35 AM 33.8 °F 26.4 °F 23.0 °F 65% 30.23 in 10.0 mi NNE 9.2 mph - N/A   Mostly Cloudy
6:55 AM 33.8 °F 25.8 °F 23.0 °F 65% 30.25 in 10.0 mi North 10.4 mph - N/A   Overcast
7:15 AM 32.0 °F 24.2 °F 23.0 °F 69% 30.26 in 10.0 mi North 9.2 mph - N/A   Overcast
7:35 AM 32.0 °F 24.2 °F 23.0 °F 69% 30.27 in 10.0 mi North 9.2 mph - N/A   Scattered Clouds
7:55 AM 32.0 °F 25.6 °F 23.0 °F 69% 30.27 in 10.0 mi NNE 6.9 mph - N/A   Clear
8:15 AM 32.0 °F 24.8 °F 23.0 °F 69% 30.29 in 10.0 mi NNE 8.1 mph - N/A   Mostly Cloudy
8:35 AM 32.0 °F 22.5 °F 21.2 °F 64% 30.31 in 10.0 mi North 12.7 mph - N/A   Overcast
8:55 AM 33.8 °F 25.3 °F 19.4 °F 56% 30.31 in 10.0 mi NNE 11.5 mph 19.6 mph N/A   Overcast
9:15 AM 33.8 °F 24.8 °F 19.4 °F 56% 30.31 in 10.0 mi NNE 12.7 mph 17.3 mph N/A   Mostly Cloudy
9:35 AM 32.0 °F 21.6 °F 17.6 °F 55% 30.33 in 10.0 mi NNE 15.0 mph 21.9 mph N/A   Scattered Clouds
9:55 AM 33.8 °F 24.3 °F 19.4 °F 56% 30.34 in 10.0 mi NNE 13.8 mph - N/A   Scattered Clouds
10:15 AM 32.0 °F 22.1 °F 17.6 °F 55% 30.35 in 10.0 mi North 13.8 mph - N/A   Overcast
10:35 AM 32.0 °F 22.1 °F 17.6 °F 55% 30.36 in 10.0 mi North 13.8 mph 17.3 mph N/A   Overcast
10:55 AM 32.0 °F 21.6 °F 17.6 °F 55% 30.36 in 10.0 mi North 15.0 mph - N/A   Overcast
11:15 AM 33.8 °F 24.8 °F 17.6 °F 52% 30.37 in 10.0 mi North 12.7 mph - N/A   Overcast
11:35 AM 33.8 °F 24.3 °F 17.6 °F 52% 30.37 in 10.0 mi North 13.8 mph - N/A   Overcast
11:55 AM 32.0 °F 21.2 °F 17.6 °F 55% 30.36 in 10.0 mi North 16.1 mph - N/A   Scattered Clouds
12:15 PM 32.0 °F 22.1 °F 17.6 °F 55% 30.37 in 10.0 mi North 13.8 mph 18.4 mph N/A   Scattered Clouds
12:35 PM 32.0 °F 23.0 °F 17.6 °F 55% 30.37 in 10.0 mi North 11.5 mph - N/A   Scattered Clouds
12:55 PM 33.8 °F 24.3 °F 17.6 °F 52% 30.36 in 10.0 mi NNW 13.8 mph - N/A   Clear
1:15 PM 33.8 °F 23.5 °F 17.6 °F 52% 30.37 in 10.0 mi North 16.1 mph - N/A   Clear
1:35 PM 33.8 °F 23.5 °F 17.6 °F 52% 30.37 in 10.0 mi North 16.1 mph 19.6 mph N/A   Clear
1:55 PM 33.8 °F 24.8 °F 19.4 °F 56% 30.37 in 10.0 mi NNW 12.7 mph - N/A   Clear
2:15 PM 33.8 °F 25.3 °F 17.6 °F 52% 30.37 in 10.0 mi NNW 11.5 mph 15.0 mph N/A   Mostly Cloudy
2:35 PM 32.0 °F 22.5 °F 17.6 °F 55% 30.37 in 10.0 mi NNW 12.7 mph 17.3 mph N/A   Scattered Clouds
2:55 PM 32.0 °F 22.5 °F 17.6 °F 55% 30.37 in 10.0 mi NW 12.7 mph - N/A   Mostly Cloudy
3:15 PM 32.0 °F 23.0 °F 15.8 °F 51% 30.38 in 10.0 mi NW 11.5 mph 17.3 mph N/A   Scattered Clouds
3:35 PM 30.2 °F 20.8 °F 15.8 °F 55% 30.38 in 10.0 mi NNW 11.5 mph - N/A   Scattered Clouds
3:55 PM 30.2 °F 23.4 °F 14.0 °F 51% 30.38 in 10.0 mi NNW 6.9 mph - N/A   Scattered Clouds
4:15 PM 30.2 °F 22.6 °F 14.0 °F 51% 30.38 in 10.0 mi NW 8.1 mph - N/A   Clear
4:35 PM 28.4 °F 19.1 °F 12.2 °F 51% 30.38 in 10.0 mi North 10.4 mph - N/A   Clear
4:55 PM 26.6 °F 18.2 °F 12.2 °F 55% 30.39 in 10.0 mi NNW 8.1 mph - N/A   Clear
5:15 PM 26.6 °F 19.1 °F 10.4 °F 51% 30.40 in 10.0 mi North 6.9 mph - N/A   Clear
5:35 PM 24.8 °F 16.1 °F 10.4 °F 54% 30.41 in 10.0 mi NNW 8.1 mph - N/A   Clear
5:55 PM 24.8 °F 16.1 °F 10.4 °F 54% 30.41 in 10.0 mi North 8.1 mph - N/A   Clear
6:15 PM 24.8 °F 16.9 °F 10.4 °F 54% 30.41 in 10.0 mi North 6.9 mph - N/A   Clear
6:35 PM 24.8 °F 16.1 °F 10.4 °F 54% 30.42 in 10.0 mi North 8.1 mph - N/A   Clear
6:55 PM 23.0 °F 14.7 °F 10.4 °F 59% 30.42 in 10.0 mi North 6.9 mph - N/A   Clear
7:15 PM 21.2 °F 14.9 °F 10.4 °F 63% 30.42 in 10.0 mi NNW 4.6 mph - N/A   Clear
7:35 PM 21.2 °F 10.9 °F 10.4 °F 63% 30.43 in 10.0 mi NNW 9.2 mph - N/A   Clear
7:55 PM 21.2 °F 11.7 °F 10.4 °F 63% 30.44 in 10.0 mi NNW 8.1 mph - N/A   Clear
8:15 PM 21.2 °F 12.6 °F 10.4 °F 63% 30.44 in 10.0 mi North 6.9 mph - N/A   Clear
8:35 PM 19.4 °F 12.8 °F 8.6 °F 63% 30.45 in 10.0 mi NNW 4.6 mph - N/A   Clear
8:55 PM 19.4 °F 11.5 °F 10.4 °F 68% 30.44 in 10.0 mi North 5.8 mph - N/A   Clear
9:15 PM 19.4 °F 10.4 °F 8.6 °F 63% 30.44 in 10.0 mi North 6.9 mph - N/A   Clear
9:35 PM 19.4 °F 12.8 °F 10.4 °F 68% 30.45 in 10.0 mi North 4.6 mph - N/A   Clear
9:55 PM 19.4 °F 14.3 °F 8.6 °F 63% 30.44 in 10.0 mi NNW 3.5 mph - N/A   Clear
10:15 PM 19.4 °F 14.3 °F 8.6 °F 63% 30.45 in 10.0 mi NW 3.5 mph - N/A   Clear
10:55 PM 19.4 °F - 8.6 °F 63% 30.45 in 10.0 mi Calm Calm - N/A   Clear
11:15 PM 19.4 °F - 8.6 °F 63% 30.45 in 10.0 mi Calm Calm - N/A   Clear
11:35 PM 17.6 °F - 8.6 °F 68% 30.45 in 10.0 mi Calm Calm - N/A   Clear
11:55 PM 17.6 °F - 8.6 °F 68% 30.45 in 10.0 mi Calm Calm - N/A   Clear